Toledo Metcalf, OH

8:53 PM EDT on July 25, 2017 (GMT -0400)
Metcalf

Weather History for KTDZ - December, 2013

Change the Weather History Date:

Saturday, December 14, 2013

  Actual Average (KTOL) Record (KTOL)
Temperature  
Mean Temperature 26 °F -  
Max Temperature 32 °F 36 °F 65 °F (1975)
Min Temperature 21 °F 23 °F -1 °F (1914)
Degree Days  
Heating Degree Days 38    
Moisture  
Dew Point 23 °F    
Average Humidity 87    
Maximum Humidity 93    
Minimum Humidity 78    
Precipitation  
Precipitation 0.35 in - - ()
Sea Level Pressure  
Sea Level Pressure 30.01 in    
Wind  
Wind Speed 9 mph (NE)    
Max Wind Speed 16 mph    
Max Gust Speed 23 mph    
Visibility 2 miles    
Events Fog , Snow    
Averages and records for this station are not official NWS values.
T = Trace of Precipitation, MM = Missing Value Source: NWS Daily Summary

Daily Weather History Graph

Daily Weather History Graph

Search for Another Location

Airport or City:

Trip Planner

Search our weather history database for the weather conditions in past years. The results will help you decide how hot, cold, wet, or windy it might be!

Date:

Astronomy

Dec. 14, 2013 Rise Set
Actual Time 7:52 AM EST 5:04 PM EST
Civil Twilight 7:21 AM EST 5:35 PM EST
Nautical Twilight 6:46 AM EST 6:10 PM EST
Astronomical Twilight 6:12 AM EST 6:44 PM EST
Moon 3:26 PM EST (12/14) 5:11 AM EST (12/14)
Length of Visible Light 10h 14m
Length of Day
9h 11m
Waxing Gibbous, 93% of the Moon is Illuminated
Dec 14
Waxing Gibbous
Dec 17
Full
Dec 25
Last Quarter
Jan 1
New
Jan 7
First Quarter

Hourly Weather History & Observations

Time (EST) Temp. Windchill Dew Point Humidity Pressure Visibility Wind Dir Wind Speed Gust Speed Precip Events Conditions
12:53 AM 28.0 °F 20.0 °F 21.9 °F 78% 30.26 in 10.0 mi ENE 8.1 mph - N/A   Overcast
1:02 AM 28.4 °F 19.7 °F 23.0 °F 80% 30.23 in 7.0 mi ENE 9.2 mph - 0.00 in Snow Light Snow
1:10 AM 26.6 °F 18.2 °F 23.0 °F 86% 30.23 in 1.8 mi ENE 8.1 mph - 0.00 in Snow Light Snow
1:18 AM 26.6 °F 18.2 °F 23.0 °F 86% 30.23 in 1.0 mi NE 8.1 mph - 0.00 in Snow Light Snow
1:53 AM 26.1 °F 16.8 °F 23.0 °F 88% 30.24 in 1.2 mi NE 9.2 mph - 0.01 in Snow Light Snow
2:09 AM 26.6 °F 16.8 °F 21.2 °F 80% 30.21 in 1.5 mi NE 10.4 mph - 0.00 in Snow Light Snow
2:20 AM 26.6 °F 17.5 °F 21.2 °F 80% 30.21 in 2.0 mi NE 9.2 mph - 0.00 in Snow Light Snow
2:24 AM 26.6 °F 17.5 °F 21.2 °F 80% 30.21 in 1.8 mi NE 9.2 mph - 0.00 in Snow Light Snow
2:42 AM 26.6 °F 19.1 °F 21.2 °F 80% 30.22 in 1.5 mi Variable 6.9 mph - 0.01 in Snow Light Snow
2:53 AM 26.1 °F 18.4 °F 21.9 °F 84% 30.24 in 1.2 mi NE 6.9 mph - 0.01 in Snow Light Snow
3:02 AM 24.8 °F 16.9 °F 21.2 °F 86% 30.22 in 1.0 mi NE 6.9 mph - 0.00 in Snow Light Snow
3:13 AM 24.8 °F 17.9 °F 21.2 °F 86% 30.21 in 0.8 mi NE 5.8 mph - 0.00 in Snow Light Snow
3:22 AM 24.8 °F 16.9 °F 21.2 °F 86% 30.21 in 1.0 mi NE 6.9 mph - 0.01 in Snow Light Snow
3:28 AM 24.8 °F 17.9 °F 21.2 °F 86% 30.21 in 1.2 mi NE 5.8 mph - 0.01 in Snow Light Snow
3:36 AM 24.8 °F 16.1 °F 21.2 °F 86% 30.20 in 1.8 mi NE 8.1 mph - 0.01 in Snow Light Snow
3:53 AM 25.0 °F 16.3 °F 21.9 °F 88% 30.21 in 1.2 mi NE 8.1 mph - 0.02 in Snow Light Snow
4:06 AM 26.6 °F 18.2 °F 21.2 °F 80% 30.18 in 1.5 mi NE 8.1 mph - 0.00 in Snow Light Snow
4:53 AM 26.1 °F 18.4 °F 24.1 °F 92% 30.19 in 1.8 mi NE 6.9 mph - 0.00 in Snow Light Snow
5:26 AM 26.6 °F 19.1 °F 24.8 °F 93% 30.14 in 0.8 mi NE 6.9 mph - 0.02 in Snow Light Snow
5:38 AM 26.6 °F 20.0 °F 24.8 °F 93% 30.15 in 1.0 mi NE 5.8 mph - 0.02 in Snow Light Snow
5:48 AM 26.6 °F 20.0 °F 24.8 °F 93% 30.15 in 1.2 mi ENE 5.8 mph - 0.03 in Snow Light Snow
5:49 AM 27.0 °F 20.5 °F 24.1 °F 89% 30.17 in 1.2 mi ENE 5.8 mph - 0.03 in Snow Light Snow
6:22 AM 26.6 °F 20.0 °F 24.8 °F 93% 30.15 in 2.5 mi East 5.8 mph - 0.00 in Snow Light Snow
6:34 AM 28.4 °F 22.2 °F 24.8 °F 86% 30.15 in 2.5 mi ENE 5.8 mph - 0.00 in Snow Light Snow
6:50 AM 28.4 °F 21.2 °F 24.8 °F 86% 30.14 in 1.8 mi ENE 6.9 mph - 0.01 in Snow Light Snow
6:53 AM 28.0 °F 20.8 °F 25.0 °F 88% 30.17 in 1.8 mi ENE 6.9 mph - 0.01 in Snow Light Snow
7:00 AM 28.4 °F 20.4 °F 24.8 °F 86% 30.14 in 2.0 mi ENE 8.1 mph - 0.00 in Snow Light Snow
7:30 AM 28.4 °F 19.7 °F 24.8 °F 86% 30.12 in 1.8 mi ENE 9.2 mph - 0.00 in Snow Light Snow
7:53 AM 28.0 °F 19.3 °F 25.0 °F 88% 30.14 in 1.8 mi ENE 9.2 mph - 0.01 in Snow Light Snow
8:12 AM 28.4 °F 20.4 °F 26.6 °F 93% 30.12 in 1.5 mi ENE 8.1 mph - 0.00 in Snow Light Snow
8:49 AM 28.4 °F 19.1 °F 26.6 °F 93% 30.11 in 0.8 mi East 10.4 mph - 0.00 in Snow Light Snow
8:53 AM 28.9 °F 20.4 °F 26.1 °F 89% 30.13 in 0.5 mi East 9.2 mph - 0.01 in Fog , Snow Light Snow
9:43 AM 30.2 °F 22.6 °F 26.6 °F 86% 30.09 in 0.5 mi ENE 8.1 mph - 0.02 in Fog , Snow Snow
9:53 AM 30.0 °F 21.7 °F 27.0 °F 88% 30.10 in 0.5 mi ENE 9.2 mph - 0.02 in Fog , Snow Snow
10:05 AM 30.2 °F 21.3 °F 26.6 °F 86% 30.07 in 0.2 mi ENE 10.4 mph 18.4 mph 0.01 in Fog , Snow Snow
10:33 AM 30.2 °F 21.3 °F 28.4 °F 93% 30.05 in 1.2 mi ENE 10.4 mph - 0.01 in Snow Light Snow
10:53 AM 30.9 °F 21.7 °F 28.0 °F 89% 30.07 in 2.0 mi ENE 11.5 mph - 0.02 in Snow Light Snow
10:58 AM 30.2 °F 21.3 °F 26.6 °F 86% 30.04 in 1.0 mi ENE 10.4 mph - 0.00 in Snow Light Snow
11:07 AM 30.2 °F 21.3 °F 28.4 °F 93% 30.03 in 0.5 mi ENE 10.4 mph - 0.00 in Fog , Snow Light Snow
11:53 AM 30.9 °F 22.2 °F 28.0 °F 89% 30.01 in 0.5 mi ENE 10.4 mph - 0.02 in Fog , Snow Snow
12:25 PM 30.2 °F 20.8 °F 28.4 °F 93% 29.95 in 0.5 mi ENE 11.5 mph - 0.03 in Fog , Snow Snow
12:53 PM 30.9 °F 21.2 °F 28.0 °F 89% 29.96 in 0.5 mi ENE 12.7 mph - 0.04 in Fog , Snow Snow
1:53 PM 30.9 °F 21.7 °F 28.0 °F 89% 29.90 in 0.2 mi ENE 11.5 mph - 0.04 in Fog , Snow Snow
2:53 PM 30.9 °F 21.7 °F 28.0 °F 89% 29.85 in 0.8 mi NE 11.5 mph 20.7 mph 0.02 in Snow Light Snow
3:53 PM 32.0 °F 22.5 °F 28.9 °F 88% 29.85 in 0.5 mi NE 12.7 mph - 0.04 in Fog , Snow Snow
4:19 PM 30.2 °F 22.6 °F 26.6 °F 86% 29.82 in 0.5 mi NNE 8.1 mph - 0.02 in Fog , Snow Snow
4:34 PM 28.4 °F 19.1 °F 26.6 °F 93% 29.82 in 1.2 mi NNE 10.4 mph 17.3 mph 0.02 in Snow Light Snow
4:53 PM 27.0 °F 16.7 °F 24.1 °F 89% 29.83 in 1.5 mi NNE 11.5 mph - 0.02 in Snow Light Snow
5:05 PM 26.6 °F 16.8 °F 23.0 °F 86% 29.81 in 0.8 mi NNE 10.4 mph 20.7 mph 0.01 in Snow Light Snow
5:12 PM 26.6 °F 16.2 °F 21.2 °F 80% 29.80 in 1.2 mi NNE 11.5 mph 20.7 mph 0.01 in Snow Light Snow
5:40 PM 24.8 °F 13.4 °F 21.2 °F 86% 29.80 in 1.0 mi NNE 12.7 mph 20.7 mph 0.01 in Snow Light Snow
5:53 PM 25.0 °F 12.6 °F 21.0 °F 85% 29.82 in 1.2 mi NNE 15.0 mph 23.0 mph 0.01 in Snow Light Snow
6:21 PM 24.8 °F 14.0 °F 21.2 °F 86% 29.80 in 1.2 mi NNE 11.5 mph 20.7 mph 0.01 in Snow Light Snow
6:53 PM 25.0 °F 12.2 °F 21.0 °F 85% 29.81 in 1.0 mi NNE 16.1 mph - 0.02 in Snow Light Snow
7:12 PM 24.8 °F 12.4 °F 21.2 °F 86% 29.78 in 1.2 mi NNE 15.0 mph 23.0 mph 0.00 in Snow Light Snow
7:53 PM 24.1 °F 12.0 °F 21.0 °F 88% 29.81 in 2.0 mi NNE 13.8 mph 23.0 mph 0.00 in Snow Light Snow
8:03 PM 24.8 °F 12.9 °F 21.2 °F 86% 29.78 in 5.0 mi NNE 13.8 mph 19.6 mph 0.00 in Snow Light Snow
8:28 PM 24.8 °F 13.4 °F 19.4 °F 80% 29.79 in 6.0 mi NNE 12.7 mph 20.7 mph 0.00 in   Overcast
8:51 PM 24.8 °F 14.0 °F 19.4 °F 80% 29.78 in 4.0 mi NNE 11.5 mph 18.4 mph 0.00 in Snow Light Snow
8:53 PM 24.1 °F 12.5 °F 19.9 °F 84% 29.81 in 3.0 mi North 12.7 mph - 0.00 in Snow Light Snow
9:01 PM 24.8 °F 14.6 °F 19.4 °F 80% 29.79 in 2.5 mi North 10.4 mph - 0.00 in Snow Light Snow
9:33 PM 21.2 °F 9.5 °F 19.4 °F 93% 29.78 in 1.8 mi North 11.5 mph - 0.00 in Snow Light Snow
9:48 PM 21.2 °F 10.1 °F 17.6 °F 86% 29.78 in 2.0 mi North 10.4 mph - 0.00 in Snow Light Snow
9:49 PM 21.9 °F 11.0 °F 18.0 °F 85% 29.81 in 2.0 mi North 10.4 mph - 0.00 in Snow Light Snow
9:55 PM 21.2 °F 8.9 °F 17.6 °F 86% 29.79 in 1.8 mi NNW 12.7 mph - 0.00 in Snow Light Snow
10:08 PM 21.2 °F 10.1 °F 17.6 °F 86% 29.78 in 2.5 mi NNW 10.4 mph - 0.00 in Snow Light Snow
10:10 PM 21.2 °F 9.5 °F 17.6 °F 86% 29.78 in 3.0 mi North 11.5 mph - 0.00 in Snow Light Snow
10:19 PM 21.2 °F 10.9 °F 17.6 °F 86% 29.79 in 5.0 mi NNW 9.2 mph - 0.00 in   Overcast
10:27 PM 21.2 °F 9.5 °F 17.6 °F 86% 29.79 in 5.0 mi NNW 11.5 mph - 0.00 in   Overcast
10:53 PM 21.9 °F 10.4 °F 17.1 °F 82% 29.82 in 10.0 mi NNW 11.5 mph - 0.00 in   Overcast
11:05 PM 21.2 °F 8.9 °F 17.6 °F 86% 29.80 in 10.0 mi NNW 12.7 mph - N/A   Overcast
11:53 PM 23.0 °F 12.4 °F 18.0 °F 81% 29.83 in 5.0 mi NNW 10.4 mph - 0.00 in   Haze